Regional Weather Roundup
Issued by NWS Wakefield, VA

Home | Current Version | Previous Version | Text Only | Print | Product List | Glossary Off
Versions: 1 2 3 4 5 6 7 8 9 10 11 12 13 14 15 16 17 18 19 20 21 22 23 24 25 26 27 28 29 30 31 32 33 34 35 36 37 38 39 40 41 42 43 44 45 46 47 48 49 50

000
ASUS41 KAKQ 281715
RWRAKQ

REGIONAL WEATHER ROUNDUP
NATIONAL WEATHER SERVICE WAKEFIELD VA
100 PM EDT FRI AUG 28 2015

Note: "fair" indicates few or no clouds below 12,000 feet with no
significant weather and/or obstructions to visibility. * = Denotes
station may not report precipitation (e.g., rain,snow,etc.),
thunder or fog.

VAZ042-051-052>054-056-281800-
NORTHERN VIRGINIA

CITY           SKY/WX    TMP DP  RH WIND       PRES   REMARKS
WASH NATIONAL  PTSUNNY   80  56  43 CALM      30.20F
DULLES         MOSUNNY   79  57  46 SW7       30.20F
FORT BELVOIR   MOSUNNY   79  59  50 SE7       30.19F
QUANTICO       MOSUNNY   77  59  53 S5        30.21F
FREDERICKSBRG* PTSUNNY   81  59  45 SE3       30.19F
STAFFORD*      MOSUNNY   79  58  48 E5        30.24F
WARRENTON      PTSUNNY   80  62  54 SE5       30.20F
CULPEPER*      MOSUNNY   78  60  54 S3        30.21F
MANASSAS*      SUNNY     79  57  47 CALM      30.21F
LEESBURG*      SUNNY     82  61  47 S6        30.22F
WINCHESTER     PTSUNNY   79  55  44 S6        30.21F
FRONT ROYAL*   PTSUNNY   81  59  47 S3        30.20F
LURAY*         PTSUNNY   79  55  44 W6        30.21S
$$

VAZ048-049-060>072-079>083-281800-
CENTRAL AND SOUTH CENTRAL VIRGINIA

CITY           SKY/WX    TMP DP  RH WIND       PRES   REMARKS
RICHMOND       MOSUNNY   82  57  42 VRB3      30.20F
CHESTERFIELD*  PTSUNNY   82  54  36 E6        30.21F
PETERSBURG*    PTSUNNY   84  63  48 NE5       30.21F
HANOVER        SUNNY     80  57  45 VRB3      30.22F
TAPPAHANNOCK*  MOSUNNY   80  54  40 CALM      30.21F
QUINTON*       FAIR      79  62  54 CALM      30.20F
CHARLOTTSVILLE PTSUNNY   79  59  50 CALM      30.21F
GORDONSVILLE*  PTSUNNY   80  62  52 SW7       30.20F
ORANGE*        PTSUNNY   82  59  44 CALM      30.22F
LOUISA*        MOSUNNY   79  57  47 S5        30.20S
BUMPASS*       PTSUNNY   79  58  49 SE3       30.20F
FARMVILLE*     PTSUNNY   82  56  41 CALM      30.20F
CREWE*         CLOUDY   N/A N/A N/A CALM      30.21F
FORT PICKETT*  PTSUNNY   81  60  48 SE3       30.21F
CHASE CITY*    FAIR      83  62  47 E6        30.21F
CLARKSVILLE*   FAIR      81  59  47 CALM      30.21F
SOUTH HILL*    SUNNY     79  62  55 CALM      30.27S
LAWRENCEVILLE* FAIR      81  61  50 E3        30.20F
EMPORIA*       SUNNY     81  59  47 CALM      30.21F
$$

VAZ088>098-281800-
SOUTHEAST VIRGINIA

CITY           SKY/WX    TMP DP  RH WIND       PRES   REMARKS
NORFOLK        SUNNY     81  57  43 N12       30.20S
VIRGINIA BEACH MOSUNNY   83  56  39 NE12      30.19F
NORFOLK NAVAL  MOSUNNY   81  60  48 N13       30.21F
WEST POINT*    MOSUNNY   84  50  31 NW3       30.21F
SALUDA*        FAIR      78  63  61 SE6       30.20F
NEWPORT NEWS   MOSUNNY   82  58  43 E7        30.20F
LANGLEY AFB    SUNNY     81  59  47 NE8       30.19F
FORT EUSTIS    MOSUNNY   82  56  41 E9        30.18F
WILLIAMSBURG*  SUNNY     86  61  42 E3        30.20F
HR EXEC AP*      N/A     82  57  42 N6G17     30.22S
FRANKLIN*      SUNNY     82  58  42 E7        30.20F
WAKEFIELD      MOSUNNY   81  57  43 E6        30.20F
$$

VAZ020-022-025-037-045-281800-
WEST CENTRAL AND SOUTHWEST VIRGINIA

CITY           SKY/WX    TMP DP  RH WIND       PRES   REMARKS
STAUNTON*      MOSUNNY   82  58  45 S8        30.24F
WAYNESBORO*    PTSUNNY   77  60  55 W3        30.24S
HOT SPRINGS VA MOSUNNY   68  57  68 W5        30.32S
LYNCHBURG      PTSUNNY   78  60  53 S8        30.24S
DANVILLE       SUNNY     81  59  47 CALM      30.22F
SOUTH BOSTON*  FAIR      82  57  43 S3        30.21F
MARTINSVILLE   MOSUNNY   82  58  44 SE3       30.25F
ROANOKE        MOSUNNY   79  62  56 VRB7      30.24F
BLACKSBURG     PTSUNNY   75  62  62 SW3       30.29F
DUBLIN*        CLOUDY    77  60  54 S3        30.27F
MARION*        PTSUNNY   76  60  57 NW6       30.29F
HILLSVILLE*    MOSUNNY   73  61  66 S5        30.28S
RICHLANDS*     FAIR      74  25  15 W6        30.27F
WISE*          MOSUNNY   77  55  47 SW5       30.28F
ABINGDON*      MOSUNNY   79  58  48 CALM      30.25S
$$

MDZ021>025-VAZ099-100-281800-
SOUTHERN MARYLAND AND THE DELMARVA PENINSULA

CITY           SKY/WX    TMP DP  RH WIND       PRES   REMARKS
PATUXENT RIVER MOSUNNY   79  57  46 NE7       30.20F
BAY BRIDGE APT   N/A     77  52  41 NW6       30.20F
LEONARDTOWN    SUNNY     77  59  53 CALM      30.22S
DOVER          SUNNY     78  61  56 VRB3      30.19F
GEORGETOWN     MOSUNNY   79  53  40 SW5       30.20F
EASTON         NOT AVBL
CAMBRIDGE      SUNNY     79  55  44 CALM      30.19F
SALISBURY      MOSUNNY   80  56  43 NE7       30.19F
OCEAN CITY     SUNNY     78  57  48 E12       30.20F
WALLOPS ISLAND PTSUNNY   80  58  46 E9        30.20F
ACCOMACK*      SUNNY    N/A N/A N/A N8        30.20S
$$

NCZ012>017-030>032-281800-
NORTH CENTRAL AND EASTERN NORTH CAROLINA

CITY           SKY/WX    TMP DP  RH WIND       PRES   REMARKS
ROANOKE RAPIDS FAIR      81  57  44 E5        30.20S
RALEIGH        MOSUNNY   83  58  42 NE8       30.21F
ELIZABETH CITY MOSUNNY   82  61  48 NE13G23   30.18F
AHOSKIE*       SUNNY     80  57  46 N8        30.19F
EDENTON*       MOSUNNY   81  62  53 NE7       30.18F
CURRITUCK*     MOSUNNY   81  58  45 NE12G18   30.20S
KILL DEVIL HLS PTSUNNY   82  64  53 NE6G16    30.17S
MANTEO         MOSUNNY   79  64  59 NE12G17   30.18S
CAPE HATTERAS  MOSUNNY   81  66  60 NE10G23   30.15S
TARBORO*       FAIR      85  56  36 NE6       30.19F
GOLDSBORO      MOSUNNY   83  60  44 NE14      30.17F
WASHINGTON     MOSUNNY   81  64  54 NE8G16    30.18F
GREENVILLE     MOSUNNY   82  61  47 E8        30.19F
NEW BERN       PTSUNNY   82  66  58 N12       30.17F
WILMINGTON     PTSUNNY   85  67  54 NE10      30.14F
$$

VAZ048-281800-
ELSEWHERE

CITY           SKY/WX    TMP DP  RH WIND       PRES   REMARKS
HARRISBURG PA  MOSUNNY   79  56  45 W7        30.19F
BALTIMORE      MOSUNNY   78  55  44 SW3       30.19F
ANNAPOLIS      SUNNY     76  58  53 SE6       30.20F
ANDREWS AFB    PTSUNNY   78  57  47 VRB5      30.19F
PHILADELPHIA   NOT AVBL
HENDERSON NC   SUNNY     80  54  39 N5        30.22S
GREENSBORO     MOSUNNY   80  57  45 NE8       30.22F
ROCKY MOUNT    SUNNY     85  58  39 NE10      30.19F
$$

VAZ100-281800-
MARINE

STATION/POSITION TIME  TEMP    WIND        PRES    WAVE   SWELL
                       AIR SEA DIR/SP/G            HT/PER HT/PER
                 (UTC) (F)     (DEG/KT/KT) (MB)    (FT/S) (FT/S)
BRANDYWINE LGT   1600   71 75  360/  5/  5 1023.4F
CAPE MAY NJ      1600   76 78  290/  2/  7 1022.8S
LEWES DE         1600   72 75   10/  5/  6 1023.1S
15NM E FENWICK I 1650   73 78  360/  8/ 10 1022.9F   3/10   3/10
OCEAN-CITY-INLET 1600   75 77   70/  7/ 11 1022.1F
WACHAPREAGUE VA  1600   76 78   80/  9/ 12 1022.7F
GOOSES REEF MD   1700   75 80   70/  2/  6 1023.8F
COVE POINT MD    1600   73      20/  4/  8 1024.0S
SOLOMONS ISLAND  1600      81                N/A
BISHOPS HEAD MD  1600   76 76   40/  5/  7 1022.2F
PINEY POINT MD   1600          230/  3/  4   N/A
POTOMAC MD       1700   75 80   90/  6/  8 1021.8F   0
CAMBRIDGE MD     1600   75 79   CALM  /  2 1022.3F
LEWISETTA VA     1600   75 78   90/  5/  5 1022.9S
RAPPAHANNOCK LGT 1600           20/ 11/ 12 1023.4F
STINGRAY PT      1600   75 80   40/  8/ 12 1023.5F   1/ 3
YORK RVR RNG VA  1600   76      60/ 11/ 13 1022.6S
YORKTOWN VA      1600   77 80   70/ 10/ 12 1022.7F
JAMESTOWN VA     1700   79 83  360/  4/  8   N/A
DOMINION TERM VA 1600   79      60/  5/  9 1022.8F
KIPTOPEKE VA     1600      78  160/  4/  9   N/A
CHES BAY BRIDGE  1600   76 79  340/ 11/ 12 1022.4F
CAPE HENRY VA    1600   76      30/ 11/ 13   N/A
CHESAPEAKE LGHT  1600   75      20/ 14/ 15 1023.1S
WILLOUBY STN VA  1600   75      20/ 11/ 13 1023.9F
CAPE HENRY BUOY  1628      79                N/A     3/11   2/11
1ST LANDING BUOY 1700      79              1022.3F   2/ 4
CAPE CHARLES BUO 1626      79                N/A     3/11   2/11
OFFSHORE WE BUOY 1611      78                N/A     4/11   3/11
64NM E OF VA BCH 1650   77 79   30/ 12/ 16 1021.3F   4/10   3/10
DUCK PIER NC     1600   76 78   20/ 15/ 17 1021.5R
44100 DUCK FRF   1624      78                N/A     4/10   2/11
44056 DUCK FRF   1611      78                N/A     4/12   2/12
OREGON INLET NC  1600   79 75   20/ 13/ 18 1021.6R
HATTERAS NC      1600   79 79   20/ 15/ 21 1020.8R
DIAMOND SHLS NC  1650   80 82   30/ 17/ 21 1020.3S   4/ 8   2/ 8



USA.gov is the U.S. government's official web portal to all federal, state and local government web resources and services.